FW3330 Summerville SC US current weather conditions

sailwx.info

Wind from 146 at 1 knots gusting 6

Air temperature 24.4° C
Dewpoint 23.6° C

Last reported at 2020-Jul-07 17:03 UTC.
Time now 2020-Jul-07 17:53 UTC

Location: N 33°03' W 080°14'.
View on Google Maps.

See reports from other nearby stations

  
Tides and Currents Weather Stations Pressure Air Temp Water Temp Dewpoint Dewpoint Depression Visibility Wind Speed Wind Dir Waves Ship Positions
date/time (UTC)wind fromknots sea level pressurealtimeterstation pressurevisibilityair tempwater tempwave heightnotes
2020-Jul-07 17:03 146 1 gusting 6 24.4
2020-Jul-07 16:53 121 3 gusting 7 24.4
2020-Jul-07 16:43 148 0 gusting 5 24.4
2020-Jul-07 16:33 154 1 gusting 6 24.4
2020-Jul-07 16:23 177 0 gusting 6 25.0
2020-Jul-07 16:13 168 2 gusting 6 25.0
2020-Jul-07 16:03 113 1 gusting 6 25.0
2020-Jul-07 13:13 108 1 gusting 5 23.3
2020-Jul-07 13:03 118 23.9
2020-Jul-07 12:53 204 1 gusting 6 23.9
2020-Jul-07 12:43 140 0 gusting 3 23.9
2020-Jul-07 12:33 131 0 gusting 4 23.9
2020-Jul-07 12:23 112 1 gusting 4 23.9
2020-Jul-07 12:13 111 1 gusting 3 23.9
2020-Jul-07 12:03 092 0 gusting 4 23.9
2020-Jul-07 11:53 112 23.9
2020-Jul-07 11:43 112 23.9
2020-Jul-07 11:33 130 23.3
2020-Jul-07 11:23 114 23.3
2020-Jul-07 11:13 114 23.3
2020-Jul-07 11:03 176 23.3
2020-Jul-07 10:53 176 23.3
2020-Jul-07 10:43 175 23.3
2020-Jul-07 10:33 149 23.9
2020-Jul-07 10:23 152 23.9
2020-Jul-07 10:13 152 23.9
2020-Jul-07 10:03 152 23.9
2020-Jul-07 09:53 152 23.9
2020-Jul-06 22:13 160 0 gusting 6 28.3
2020-Jul-06 22:03 156 0 gusting 8 28.3
2020-Jul-06 21:53 142 2 gusting 6 28.3
2020-Jul-06 21:43 185 2 gusting 8 28.3
2020-Jul-06 21:33 164 2 gusting 8 28.9
2020-Jul-06 21:23 205 2 gusting 9 28.9
2020-Jul-06 21:13 165 2 gusting 6 28.9
2020-Jul-06 21:03 135 5 gusting 9 28.9
2020-Jul-06 20:53 214 1 gusting 10 29.4
2020-Jul-06 20:43 122 4 gusting 11 29.4
2020-Jul-06 20:33 164 2 gusting 10 30.0
2020-Jul-06 20:23 190 2 gusting 8 30.0
2020-Jul-06 20:13 154 4 gusting 10 30.6
2020-Jul-06 20:03 149 3 gusting 11 30.6
2020-Jul-06 19:53 200 3 gusting 9 31.1
2020-Jul-06 19:43 127 6 gusting 11 31.1
2020-Jul-06 19:33 141 3 gusting 8 31.1
2020-Jul-06 19:23 149 5 gusting 12 31.1
2020-Jul-06 19:14 160 2 gusting 13 31.1
2020-Jul-06 19:03 175 3 gusting 11 31.1
2020-Jul-06 18:53 127 4 gusting 11 31.1
2020-Jul-06 18:43 160 6 gusting 9 31.1
2020-Jul-06 18:33 147 3 gusting 10 31.1
2020-Jul-06 18:23 197 3 gusting 9 30.6
2020-Jul-06 18:13 211 2 gusting 8 31.1
2020-Jul-06 18:03 195 3 gusting 9 30.6
2020-Jul-06 17:53 152 2 gusting 7 30.6
2020-Jul-06 17:43 197 3 gusting 9 30.6
2020-Jul-06 17:33 164 1 gusting 7 31.1
2020-Jul-06 17:23 141 3 gusting 8 31.1
2020-Jul-06 17:13 145 3 gusting 7 30.6
2020-Jul-06 17:03 085 3 gusting 6 31.1
2020-Jul-06 16:53 185 1 gusting 6 31.1
2020-Jul-06 16:43 187 1 gusting 7 30.6
2020-Jul-06 16:33 160 1 gusting 6 30.6
2020-Jul-06 16:23 199 1 gusting 7 31.1
2020-Jul-06 16:13 189 3 gusting 8 30.6
2020-Jul-06 16:03 194 2 gusting 6 30.6
2020-Jul-06 15:53 172 2 gusting 6 30.0
2020-Jul-06 15:43 120 4 gusting 6 30.6
2020-Jul-06 15:33 316 30.6
2020-Jul-06 15:23 152 31.1
2020-Jul-06 15:13 139 0 gusting 6 31.1
2020-Jul-06 15:03 201 2 gusting 5 30.6
2020-Jul-06 14:53 106 0 gusting 4 30.6
2020-Jul-06 14:43 153 0 gusting 4 30.0
2020-Jul-06 14:33 171 0 gusting 4 30.0
2020-Jul-06 14:23 151 1 gusting 4 30.0
2020-Jul-06 14:13 154 1 gusting 6 30.0
2020-Jul-06 14:03 163 0 gusting 5 29.4
2020-Jul-06 13:53 137 3 gusting 6 29.4
2020-Jul-06 13:43 131 0 gusting 4 28.9
2020-Jul-06 13:33 201 28.9
2020-Jul-06 13:23 125 1 gusting 5 28.3
2020-Jul-06 13:13 176 0 gusting 2 27.8
2020-Jul-06 13:03 214 0 gusting 4 27.2
2020-Jul-06 12:53 143 0 gusting 3 26.7
2020-Jul-06 12:43 126 26.7
2020-Jul-06 12:33 125 26.1
2020-Jul-06 12:23 125 25.6
2020-Jul-06 12:13 106 25.0
2020-Jul-06 12:03 106 25.0
2020-Jul-06 11:53 106 24.4
2020-Jul-06 11:43 106 23.9
2020-Jul-06 11:33 106 23.9
2020-Jul-06 11:23 106 23.3
2020-Jul-06 11:13 106 23.3
2020-Jul-06 11:03 106 23.3
2020-Jul-06 10:53 106 23.3
2020-Jul-06 10:43 106 22.8
2020-Jul-06 10:34 106 22.8
2020-Jul-06 10:23 106 23.3
2020-Jul-06 10:13 106 23.3
2020-Jul-06 10:03 106 23.3
2020-Jul-06 09:53 106 23.3
2020-Jul-06 09:43 106 23.3
2020-Jul-05 22:23 203 4 gusting 7 30.0
2020-Jul-05 22:13 128 2 gusting 8 30.0
2020-Jul-05 22:03 129 2 gusting 8 30.0
2020-Jul-05 21:53 213 4 gusting 8 30.0
2020-Jul-05 21:43 187 3 gusting 6 30.0
2020-Jul-05 21:33 138 4 gusting 6 30.0
2020-Jul-05 21:23 139 2 gusting 8 30.0
2020-Jul-05 21:13 127 4 gusting 10 30.6
2020-Jul-05 21:03 132 6 gusting 9 30.6
2020-Jul-05 20:53 154 2 gusting 7 30.6
2020-Jul-05 20:43 199 3 gusting 9 30.6
2020-Jul-05 20:33 146 3 gusting 8 30.6
2020-Jul-05 20:23 118 5 gusting 11 31.1
2020-Jul-05 20:13 156 3 gusting 6 31.7
2020-Jul-05 20:03 129 3 gusting 8 32.2
2020-Jul-05 19:53 135 2 gusting 6 32.8
2020-Jul-05 19:43 116 3 gusting 8 32.2
2020-Jul-05 19:33 149 3 gusting 8 31.7
2020-Jul-05 19:23 112 0 gusting 11 31.7
2020-Jul-05 19:13 208 2 gusting 8 31.7
2020-Jul-05 19:03 177 3 gusting 9 31.7
2020-Jul-05 18:53 102 3 gusting 7 31.1
2020-Jul-05 18:43 160 2 gusting 7 31.1
2020-Jul-05 18:33 113 4 gusting 9 31.7
2020-Jul-05 18:23 170 2 gusting 6 31.7
2020-Jul-05 18:13 135 0 gusting 6 31.1
2020-Jul-05 18:03 139 2 gusting 7 31.1
2020-Jul-05 17:53 158 4 gusting 8 31.7
2020-Jul-05 17:43 087 3 gusting 6 31.1
2020-Jul-05 17:33 076 3 gusting 6 31.1
2020-Jul-05 17:23 056 5 gusting 8 31.1
2020-Jul-05 17:13 102 3 gusting 7 31.1
2020-Jul-05 17:03 144 4 gusting 8 31.7